General Aviation Weather

Text Reports

Enter one or more of the following location identifiers separated by a space:

Zip Code, Four-Character ICAO or Three-Character IATA airport codes.

METAR - Aviation Routine Weather Report
KCGE - Cambridge, Maryland
Updated at 12:03 PM GMT on November 24, 2014 (7:03 AM EST):
METAR KCGE 241203Z AUTO 18009G17KT 10SM OVC004 17/16 A2972 RMK AO1
TAF - Terminal Area Forecast
KCGE - Cambridge, Maryland
Updated at 12:03 PM GMT on November 24, 2014 (7:03 AM EST):
No TAF is currently available for this location.
Decoded:
No decoded TAF is available.
PIREP - Pilot Weather Report
KCGE - Cambridge, Maryland
Updated at 12:03 PM GMT on November 24, 2014 (7:03 AM EST):
No PIREP is currently available for this location.
AIRMET - Airmens Meteorological Information
KCGE - Cambridge, Maryland
Updated at 12:03 PM GMT on November 24, 2014 (7:03 AM EST):
No AIRMET is currently available for this location.
SIGMET - Significant Meteorological Information
KCGE - Cambridge, Maryland
Updated at 12:03 PM GMT on November 24, 2014 (7:03 AM EST):
No SIGMET is currently available for this location.
NOTAM - Notice to Airmen
KCGE - Cambridge, Maryland
Updated at 12:03 PM GMT on November 24, 2014 (7:03 AM EST):
No NOTAM is currently available for this location.
Forecast Area
KCGE - Cambridge, Maryland
Updated at 12:03 PM GMT on November 24, 2014 (7:03 AM EST):
No NOTAM is currently available for this location.
Aviation Weather Maps